Powrót do katalogu

STARLINK-38187

AktywnyŁącznośćSSO
NORAD 100259·PAYLOAD·🇺🇸 United States

Wystrzelony Aug 8, 2026 z Vandenberg Space Force Base

Loading…

Następne Przeloty (najbliższe 24 godziny)

TLE

ŚwieżeSource: Space-Track

Epoka: Sep 14, 2026, 16:12 UTC

1 A0259U 26181P   26257.67530708  .00212125  00000-0  13781-2 0  9997
2 A0259  97.2839 300.9852 0002126  12.3554 347.7763 15.75355657  7041

Śledź STARLINK-38187 w czasie rzeczywistym z AllMySat

Download on the App Store